Ozark, AL

1:12 PM CDT on July 23, 2017 (GMT -0500)
Cairns Army Air Field

Weather History for KOZR - February, 2012

Change the Weather History Date:

Sunday, February 12, 2012

  Actual Average Record
Temperature  
Mean Temperature 34 °F -  
Max Temperature 46 °F 61 °F 82 °F (2000)
Min Temperature 22 °F 40 °F 22 °F (2012)
Degree Days  
Heating Degree Days 31    
Moisture  
Dew Point 11 °F    
Average Humidity 40    
Maximum Humidity 62    
Minimum Humidity 23    
Precipitation  
Precipitation 0.00 in - - ()
Sea Level Pressure  
Sea Level Pressure 30.40 in    
Wind  
Wind Speed 7 mph (NW)    
Max Wind Speed 13 mph    
Max Gust Speed 17 mph    
Visibility 10 miles    
Events      
Averages and records for this station are not official NWS values.
T = Trace of Precipitation, MM = Missing Value Source: NWS Daily Summary

Daily Weather History Graph

Daily Weather History Graph

Search for Another Location

Airport or City:

Trip Planner

Search our weather history database for the weather conditions in past years. The results will help you decide how hot, cold, wet, or windy it might be!

Date:

Astronomy

Feb. 12, 2012 Rise Set
Actual Time 6:27 AM CST 5:27 PM CST
Civil Twilight 6:02 AM CST 5:52 PM CST
Nautical Twilight 5:33 AM CST 6:20 PM CST
Astronomical Twilight 5:05 AM CST 6:49 PM CST
Moon 10:55 PM CST (2/12) 9:11 AM CST (2/12)
Length of Visible Light 11h 49m
Length of Day
10h 59m
Waning Gibbous, 72% of the Moon is Illuminated
Feb 12
Waning Gibbous
Feb 14
Last Quarter
Feb 21
New
Feb 29
First Quarter
Mar 8
Full

Hourly Weather History & Observations

Time (CST) Temp. Windchill Dew Point Humidity Pressure Visibility Wind Dir Wind Speed Gust Speed Precip Events Conditions
12:55 AM 28.6 °F 21.5 °F 8.8 °F 43% 30.39 in 10.0 mi NW 6.9 mph - N/A   Clear
1:55 AM 27.5 °F 20.2 °F 9.5 °F 47% 30.39 in 10.0 mi NNW 6.9 mph - N/A   Clear
2:55 AM 27.0 °F 18.7 °F 8.6 °F 46% 30.39 in 10.0 mi NW 8.1 mph - N/A   Clear
3:55 AM 25.5 °F 18.7 °F 8.6 °F 49% 30.40 in 10.0 mi NW 5.8 mph - N/A   Clear
4:55 AM 23.9 °F 18.0 °F 9.3 °F 54% 30.41 in 10.0 mi WNW 4.6 mph - N/A   Clear
5:55 AM 22.6 °F 16.5 °F 10.8 °F 60% 30.45 in 10.0 mi WNW 4.6 mph - N/A   Clear
6:55 AM 23.9 °F 16.8 °F 12.6 °F 62% 30.47 in 10.0 mi NW 5.8 mph - N/A   Clear
7:55 AM 27.5 °F 16.8 °F 11.3 °F 51% 30.49 in 10.0 mi NW 12.7 mph - N/A   Clear
8:55 AM 31.1 °F 22.4 °F 9.0 °F 40% 30.50 in 10.0 mi NNW 10.4 mph - N/A   Clear
9:55 AM 34.0 °F 25.5 °F 7.7 °F 33% 30.49 in 10.0 mi NNW 11.5 mph - N/A   Clear
10:55 AM 37.6 °F 33.1 °F 7.0 °F 28% 30.48 in 10.0 mi NW 5.8 mph - N/A   Clear
11:55 AM 40.6 °F 34.3 °F 7.3 °F 25% 30.45 in 10.0 mi North 10.4 mph - N/A   Clear
12:55 PM 43.7 °F 38.6 °F 7.5 °F 23% 30.42 in 10.0 mi NNW 9.2 mph - N/A   Clear
1:55 PM 45.1 °F 42.0 °F 8.8 °F 23% 30.38 in 10.0 mi North 5.8 mph - N/A   Clear
2:55 PM 46.0 °F 40.2 °F 9.5 °F 23% 30.37 in 10.0 mi NW 12.7 mph 17.3 mph N/A   Clear
3:55 PM 46.2 °F 41.7 °F 10.8 °F 24% 30.35 in 10.0 mi North 9.2 mph - N/A   Clear
4:55 PM 44.1 °F 39.0 °F 11.3 °F 26% 30.35 in 10.0 mi NNW 9.2 mph - N/A   Clear
5:55 PM 40.5 °F 35.8 °F 11.8 °F 31% 30.36 in 10.0 mi NNW 6.9 mph - N/A   Clear
6:55 PM 37.4 °F 34.9 °F 13.1 °F 37% 30.36 in 10.0 mi NW 3.5 mph - N/A   Clear
7:55 PM 36.0 °F 31.1 °F 12.9 °F 39% 30.35 in 10.0 mi NNW 5.8 mph - N/A   Clear
8:55 PM 33.1 °F 27.7 °F 14.2 °F 46% 30.37 in 10.0 mi NW 5.8 mph - N/A   Clear
9:55 PM 33.8 °F 30.8 °F 12.6 °F 42% 30.36 in 10.0 mi NNW 3.5 mph - N/A   Clear
10:55 PM 32.5 °F 29.3 °F 13.6 °F 46% 30.35 in 10.0 mi NNW 3.5 mph - N/A   Clear
11:55 PM 28.0 °F - 16.0 °F 61% 30.34 in 10.0 mi Calm Calm - N/A   Clear